Location: Newark
(41.7539°N, 8.9378°E)
Time: 08:07:02
(UTC+00:00)

Envisat - Visible Passes

Search period start: 05 April 2020 00:00
Search period end: 15 April 2020 00:00
Orbit: 764 x 766 km, 98.1° (Epoch: 04 April)

Date Brightness Start Highest point End Pass type
(mag) Time Alt. Az. Time Alt. Az. Time Alt. Az.
05 Apr 6.2 18:34:32 10° WSW 18:36:51 13° W 18:39:09 10° WNW visible
07 Apr 6.6 04:27:20 10° ENE 04:28:27 11° E 04:29:35 10° E visible
08 Apr 6.0 18:22:12 10° SW 18:25:24 17° W 18:28:37 10° NW visible
13 Apr 6.3 18:37:57 10° WSW 18:39:44 12° W 18:41:32 10° WNW visible
